User: anonymous   Login
Location: Unspecified
(0.0000°N, 0.0000°E)
Time: 08:52:20
(UTC+00:00)
Language:

HO-68 - Orbit

View from above orbital plane
View from above orbital plane
View from above satellite
View from above satellite

Ground track
Ground track

The orbit data is extracted from the following two-line orbital elements,

1 36122U 09072B   15061.60715268 -.00000060  00000-0 -43517-4 0  9992
2 36122 100.2110 110.1500 0007419 009.8686 350.2572 13.16324468250433
Epoch (UTC): 02 March 2015 14:34:17
Eccentricity: 0.0007419
inclination: 100.2110°
perigee height: 1193 km
apogee height: 1204 km
right ascension of ascending node: 110.1500°
argument of perigee: 9.8686°
revolutions per day: 13.16324468
mean anomaly at epoch: 350.2572°
orbit number at epoch: 25043

The dashed part of the orbit path shows where the satellite is in the earth's shadow,  

DLR